EW7704 Weather Reports


Display with metric or nautical units.
time (UTC)temp
F
wind
direction
speed
MPH
gust
MPH
rain 1hr
in
rain 24hr
in
rain mn
in
humidity
%
barometer
mb
20260905220004 94 235 0.0 9.0 0.00 0.00 0.00 22 1003.2
20260905215504 94 19 4.0 9.0 0.00 0.00 0.00 20 1003.2
20260905215003 94 242 1.0 4.0 0.00 0.00 0.00 22 1003.3
20260905214502 94 223 1.0 8.0 0.00 0.00 0.00 22 1003.2
20260905214002 94 32 3.0 9.0 0.00 0.00 0.00 20 1003.3
20260905213503 94 14 4.0 9.0 0.00 0.00 0.00 22 1003.4
20260905213001 94 5 1.0 5.0 0.00 0.00 0.00 22 1003.4
20260905212603 94 316 2.0 7.0 0.00 0.00 0.00 22 1003.5
20260905212100 94 61 3.0 7.0 0.00 0.00 0.00 20 1003.6
20260905211609 94 28 3.0 9.0 0.00 0.00 0.00 21 1003.6
20260905211100 94 9 5.0 9.0 0.00 0.00 0.00 21 1003.7
20260905210557 94 43 3.0 8.0 0.00 0.00 0.00 19 1003.8
20260905210109 93 20 1.0 5.0 0.00 0.00 0.00 20 1003.8
20260905205555 93 38 1.0 8.0 0.00 0.00 0.00 20 1003.9
20260905205055 93 5 4.0 9.0 0.00 0.00 0.00 21 1004.0
20260905204554 93 216 2.0 11.0 0.00 0.00 0.00 23 1004.0
20260905204052 92 58 5.0 11.0 0.00 0.00 0.00 21 1004.1
20260905203554 92 103 6.0 10.0 0.00 0.00 0.00 20 1004.1
20260905203052 92 68 5.0 11.0 0.00 0.00 0.00 22 1004.2
20260905202551 93 48 6.0 11.0 0.00 0.00 0.00 24 1004.3
20260905202052 92 59 5.0 10.0 0.00 0.00 0.00 20 1004.2
20260905201552 92 65 4.0 8.0 0.00 0.00 0.00 19 1004.3
20260905201051 92 333 4.0 8.0 0.00 0.00 0.00 21 1004.3
20260905200554 93 345 2.0 7.0 0.00 0.00 0.00 22 1004.4
20260905200055 92 35 3.0 10.0 0.00 0.00 0.00 22 1004.4
20260905195550 90 51 2.0 12.0 0.00 0.00 0.00 24 1004.5
20260905195049 89 36 6.0 11.0 0.00 0.00 0.00 21 1004.6
20260905194549 89 5 5.0 9.0 0.00 0.00 0.00 22 1004.6
20260905194048 90 55 5.0 9.0 0.00 0.00 0.00 23 1004.6
20260905193548 90 15 3.0 9.0 0.00 0.00 0.00 25 1004.7
20260905193051 91 21 4.0 9.0 0.00 0.00 0.00 22 1004.7
20260905192548 91 28 4.0 7.0 0.00 0.00 0.00 23 1004.7
20260905192048 91 355 1.0 8.0 0.00 0.00 0.00 22 1004.8
20260905191548 91 43 3.0 8.0 0.00 0.00 0.00 23 1004.9
20260905191047 91 42 3.0 10.0 0.00 0.00 0.00 24 1004.9
20260905190550 91 331 4.0 13.0 0.00 0.00 0.00 23 1004.9
20260905190056 91 30 4.0 15.0 0.00 0.00 0.00 23 1005.0
20260905185547 91 355 9.0 15.0 0.00 0.00 0.00 21 1004.9
20260905185046 92 34 8.0 12.0 0.00 0.00 0.00 22 1005.0
20260905184547 91 37 6.0 11.0 0.00 0.00 0.00 24 1005.1
20260905184044 90 13 4.0 12.0 0.00 0.00 0.00 25 1005.1
20260905183544 90 45 8.0 12.0 0.00 0.00 0.00 22 1005.3
20260905183044 90 34 8.0 12.0 0.00 0.00 0.00 24 1005.4
20260905182542 90 5 5.0 9.0 0.00 0.00 0.00 23 1005.5
20260905182042 89 38 3.0 8.0 0.00 0.00 0.00 23 1005.4
20260905181547 90 22 1.0 6.0 0.00 0.00 0.00 23 1005.5
20260905181042 90 69 2.0 7.0 0.00 0.00 0.00 22 1005.6
20260905180542 90 360 3.0 8.0 0.00 0.00 0.00 23 1005.6
20260905180042 89 71 4.0 6.0 0.00 0.00 0.00 23 1005.7
20260905175542 88 360 2.0 8.0 0.00 0.00 0.00 25 1005.8
20260905175037 88 42 4.0 8.0 0.00 0.00 0.00 26 1005.9
20260905174540 88 15 2.0 6.0 0.00 0.00 0.00 26 1005.9
20260905174036 87 355 4.0 7.0 0.00 0.00 0.00 30 1005.9
20260905173536 86 42 2.0 5.0 0.00 0.00 0.00 30 1005.9
20260905173035 86 14 2.0 6.0 0.00 0.00 0.00 29 1005.9
20260905172535 86 59 4.0 6.0 0.00 0.00 0.00 28 1005.9
20260905172036 86 22 1.0 8.0 0.00 0.00 0.00 27 1005.9
20260905171545 86 38 5.0 8.0 0.00 0.00 0.00 27 1006.0
20260905171033 86 36 3.0 9.0 0.00 0.00 0.00 27 1006.0
20260905170535 86 68 4.0 9.0 0.00 0.00 0.00 28 1006.0
20260905170032 85 105 3.0 7.0 0.00 0.00 0.00 29 1005.9
20260905165531 85 35 2.0 8.0 0.00 0.00 0.00 31 1005.9
20260905165029 84 22 4.0 8.0 0.00 0.00 0.00 30 1005.9
20260905164529 84 47 3.0 7.0 0.00 0.00 0.00 29 1006.0
20260905164028 84 52 4.0 7.0 0.00 0.00 0.00 30 1006.0
20260905163528 83 13 4.0 6.0 0.00 0.00 0.00 30 1006.0
20260905163027 83 348 2.0 6.0 0.00 0.00 0.00 32 1006.0
20260905162526 82 35 2.0 6.0 0.00 0.00 0.00 33 1006.0
20260905162025 82 29 3.0 6.0 0.00 0.00 0.00 33 1006.1
20260905161524 82 76 3.0 8.0 0.00 0.00 0.00 34 1006.0
20260905161024 81 26 3.0 8.0 0.00 0.00 0.00 35 1005.9
20260905160525 81 40 3.0 6.0 0.00 0.00 0.00 34 1005.9
20260905160022 80 23 4.0 9.0 0.00 0.00 0.00 34 1005.9
20260905155523 79 64 4.0 8.0 0.00 0.00 0.00 36 1005.9
20260905155019 78 20 4.0 7.0 0.00 0.00 0.00 38 1005.9
20260905154518 78 17 4.0 8.0 0.00 0.00 0.00 36 1005.9
20260905154019 77 5 3.0 8.0 0.00 0.00 0.00 36 1006.0
20260905153519 77 60 3.0 8.0 0.00 0.00 0.00 37 1006.0
20260905153017 77 19 3.0 7.0 0.00 0.00 0.00 36 1006.0
20260905152515 76 51 3.0 6.0 0.00 0.00 0.00 37 1006.0
20260905152013 76 56 3.0 5.0 0.00 0.00 0.00 39 1006.1
20260905151514 76 15 3.0 5.0 0.00 0.00 0.00 38 1006.2
20260905151011 75 5 2.0 3.0 0.00 0.00 0.00 42 1006.1
20260905150510 74 42 1.0 4.0 0.00 0.00 0.00 44 1006.1
20260905150008 73 34 1.0 4.0 0.00 0.00 0.00 52 1006.1
20260905145508 72 43 1.0 3.0 0.00 0.00 0.00 53 1006.1
20260905145006 72 48 2.0 3.0 0.00 0.00 0.00 53 1006.0
20260905144515 72 61 1.0 3.0 0.00 0.00 0.00 53 1006.0
20260905144005 71 28 1.0 3.0 0.00 0.00 0.00 55 1006.0
20260905143508 70 9 1.0 3.0 0.00 0.00 0.00 58 1006.0
20260905143005 69 9 1.0 3.0 0.00 0.00 0.00 59 1006.0
20260905142504 69 9 1.0 2.0 0.00 0.00 0.00 57 1006.0
20260905142004 67 299 0.0 2.0 0.00 0.00 0.00 60 1005.9
20260905141504 66 18 0.0 2.0 0.00 0.00 0.00 62 1006.0
20260905141006 65 27 1.0 2.0 0.00 0.00 0.00 64 1006.0
20260905140504 65 27 0.0 2.0 0.00 0.00 0.00 63 1006.0
20260905140003 64 27 1.0 3.0 0.00 0.00 0.00 61 1005.9
20260905135502 66 17 1.0 3.0 0.00 0.00 0.00 59 1005.8
20260905135001 65 63 0.0 2.0 0.00 0.00 0.00 57 1005.9
20260905134600 65 130 0.0 1.0 0.00 0.00 0.00 61 1005.9
20260905134100 64 130 0.0 1.0 0.00 0.00 0.00 62 1005.9
20260905133600 63 59 0.0 1.0 0.00 0.00 0.00 62 1005.9
20260905133059 62 54 0.0 1.0 0.00 0.00 0.00 61 1005.9
20260905132558 61 57 0.0 1.0 0.00 0.00 0.00 61 1005.8
20260905132102 62 128 0.0 2.0 0.00 0.00 0.00 61 1005.8
20260905131615 63 132 0.0 2.0 0.00 0.00 0.00 58 1005.8
20260905131058 62 126 0.0 2.0 0.00 0.00 0.00 60 1005.7
20260905130559 60 186 0.0 1.0 0.00 0.00 0.00 64 1005.7
20260905130057 60 67 0.0 1.0 0.00 0.00 0.00 65 1005.6
20260905125556 58 68 0.0 1.0 0.00 0.00 0.00 68 1005.6
20260905125055 57 360 0.0 1.0 0.00 0.00 0.00 69 1005.6
20260905124555 57 360 0.0 0.0 0.00 0.00 0.00 69 1005.5
20260905124054 57 360 0.0 1.0 0.00 0.00 0.00 69 1005.4
20260905123554 58 360 0.0 1.0 0.00 0.00 0.00 68 1005.4
20260905123056 57 360 0.0 1.0 0.00 0.00 0.00 68 1005.4
20260905122553 57 360 0.0 1.0 0.00 0.00 0.00 69 1005.3
20260905122053 57 360 0.0 2.0 0.00 0.00 0.00 69 1005.3
20260905121553 57 360 1.0 2.0 0.00 0.00 0.00 68 1005.3
20260905121054 57 360 0.0 2.0 0.00 0.00 0.00 68 1005.3
20260905120554 57 360 0.0 2.0 0.00 0.00 0.00 68 1005.2
20260905120052 57 360 0.0 2.0 0.00 0.00 0.00 68 1005.3
20260905115551 57 360 1.0 2.0 0.00 0.00 0.00 65 1005.2
20260905115050 59 360 0.0 2.0 0.00 0.00 0.00 65 1005.2
20260905114552 58 360 0.0 2.0 0.00 0.00 0.00 66 1005.2
20260905114050 57 360 0.0 0.0 0.00 0.00 0.00 66 1005.1
20260905113549 58 360 0.0 0.0 0.00 0.00 0.00 64 1005.1
20260905113050 58 360 0.0 0.0 0.00 0.00 0.00 65 1005.1
20260905112548 58 360 0.0 0.0 0.00 0.00 0.00 64 1005.1
20260905112046 58 127 0.0 0.0 0.00 0.00 0.00 63 1005.3
20260905111546 58 153 0.0 1.0 0.00 0.00 0.00 62 1005.2
20260905111046 60 155 0.0 1.0 0.00 0.00 0.00 60 1005.2
20260905110544 61 155 0.0 2.0 0.00 0.00 0.00 57 1005.2
20260905110045 60 155 0.0 2.0 0.00 0.00 0.00 59 1005.2
20260905105545 60 360 0.0 1.0 0.00 0.00 0.00 59 1005.2
20260905105043 60 360 0.0 1.0 0.00 0.00 0.00 59 1005.2
20260905104552 59 360 0.0 1.0 0.00 0.00 0.00 62 1005.3
20260905104042 60 360 0.0 1.0 0.00 0.00 0.00 59 1005.2
20260905103545 60 360 0.0 1.0 0.00 0.00 0.00 61 1005.0
20260905103045 60 360 0.0 0.0 0.00 0.00 0.00 61 1005.1
20260905102540 60 360 0.0 0.0 0.00 0.00 0.00 60 1005.0
20260905102039 61 360 0.0 0.0 0.00 0.00 0.00 59 1005.1
20260905101540 61 360 0.0 1.0 0.00 0.00 0.00 58 1005.1
20260905101038 61 155 0.0 2.0 0.00 0.00 0.00 58 1005.1
20260905100541 61 130 0.0 1.0 0.00 0.00 0.00 58 1005.2
20260905100037 62 130 0.0 1.0 0.00 0.00 0.00 56 1005.2
20260905095537 62 130 0.0 1.0 0.00 0.00 0.00 55 1005.1
20260905095035 63 130 0.0 1.0 0.00 0.00 0.00 54 1005.1
20260905094536 62 130 0.0 1.0 0.00 0.00 0.00 54 1005.1
20260905094035 63 130 0.0 1.0 0.00 0.00 0.00 54 1005.2
20260905093537 63 129 0.0 1.0 0.00 0.00 0.00 54 1005.1
20260905093039 63 129 0.0 3.0 0.00 0.00 0.00 54 1005.0
20260905092536 62 134 0.0 3.0 0.00 0.00 0.00 56 1005.0
20260905092032 62 107 0.0 3.0 0.00 0.00 0.00 56 1004.9
20260905091531 64 106 0.0 3.0 0.00 0.00 0.00 53 1004.6
20260905091031 65 200 0.0 0.0 0.00 0.00 0.00 52 1004.5
20260905090530 65 200 0.0 0.0 0.00 0.00 0.00 51 1004.4
20260905090030 65 200 0.0 1.0 0.00 0.00 0.00 50 1004.4
20260905085530 65 200 0.0 1.0 0.00 0.00 0.00 51 1004.5
20260905085030 64 200 0.0 1.0 0.00 0.00 0.00 52 1004.5
20260905084528 65 200 0.0 1.0 0.00 0.00 0.00 52 1004.5
20260905084035 65 200 0.0 1.0 0.00 0.00 0.00 52 1004.4
20260905083526 65 200 0.0 0.0 0.00 0.00 0.00 51 1004.4
20260905083034 66 201 0.0 0.0 0.00 0.00 0.00 49 1004.4
20260905082525 66 201 0.0 0.0 0.00 0.00 0.00 48 1004.5
20260905082126 66 201 0.0 1.0 0.00 0.00 0.00 48 1004.5
20260905081524 66 201 0.0 1.0 0.00 0.00 0.00 49 1004.4
20260905081024 66 201 0.0 1.0 0.00 0.00 0.00 50 1004.4
20260905080524 66 201 0.0 2.0 0.00 0.00 0.00 50 1004.4
20260905080025 66 201 0.0 2.0 0.00 0.00 0.00 51 1004.4
20260905075523 66 202 0.0 2.0 0.00 0.00 0.00 51 1004.3
20260905075025 66 202 0.0 2.0 0.00 0.00 0.00 51 1004.4
20260905074523 66 161 0.0 1.0 0.00 0.00 0.00 51 1004.4
20260905074023 66 161 0.0 0.0 0.00 0.00 0.00 51 1004.4
20260905073522 66 161 0.0 0.0 0.00 0.00 0.00 50 1004.4
20260905073025 66 161 0.0 1.0 0.00 0.00 0.00 50 1004.4
20260905072521 66 192 0.0 1.0 0.00 0.00 0.00 50 1004.2
20260905072023 66 192 0.0 1.0 0.00 0.00 0.00 51 1004.2
20260905071525 66 198 0.0 1.0 0.00 0.00 0.00 53 1004.2
20260905071020 66 216 0.0 1.0 0.00 0.00 0.00 55 1004.2
20260905070519 66 216 0.0 1.0 0.00 0.00 0.00 55 1004.2
20260905070018 67 215 0.0 0.0 0.00 0.00 0.00 53 1004.1
20260905065517 67 216 0.0 0.0 0.00 0.00 0.00 52 1004.2
20260905065019 68 216 0.0 1.0 0.00 0.00 0.00 52 1004.1
20260905064516 67 216 0.0 1.0 0.00 0.00 0.00 53 1004.0
20260905064019 68 217 0.0 1.0 0.00 0.00 0.00 52 1003.9
20260905063513 68 218 0.0 1.0 0.00 0.00 0.00 51 1004.0
20260905063012 69 219 0.0 1.0 0.00 0.00 0.00 50 1004.0
20260905062511 69 218 0.0 1.0 0.00 0.00 0.00 50 1004.0
20260905062011 69 213 0.0 1.0 0.00 0.00 0.00 50 1004.0
20260905061509 70 360 0.0 2.0 0.00 0.00 0.00 50 1004.0
20260905061007 70 360 0.0 1.0 0.00 0.00 0.00 49 1003.9
20260905060506 71 360 0.0 1.0 0.00 0.00 0.00 47 1003.9
20260905060005 72 360 0.0 1.0 0.00 0.00 0.00 44 1003.9
20260905055505 72 360 0.0 3.0 0.00 0.00 0.00 43 1003.9
20260905055004 72 360 0.0 3.0 0.00 0.00 0.00 44 1003.9
20260905054505 72 360 0.0 2.0 0.00 0.00 0.00 43 1003.8
20260905054007 73 360 0.0 1.0 0.00 0.00 0.00 42 1003.8
20260905053505 73 360 0.0 0.0 0.00 0.00 0.00 43 1003.8
20260905053003 73 360 0.0 1.0 0.00 0.00 0.00 42 1003.8
20260905052504 73 360 0.0 1.0 0.00 0.00 0.00 42 1003.8
20260905052003 74 360 0.0 0.0 0.00 0.00 0.00 43 1003.8
20260905051507 74 360 0.0 0.0 0.00 0.00 0.00 43 1004.0
20260905051004 74 360 0.0 0.0 0.00 0.00 0.00 43 1003.9
20260905050502 75 360 0.0 0.0 0.00 0.00 0.00 42 1004.0
20260905050002 76 360 0.0 0.0 0.00 0.00 0.00 42 1004.0
20260905045502 76 360 0.0 0.0 0.00 0.00 0.00 41 1004.0
20260905045002 76 360 0.0 0.0 0.00 0.00 0.00 39 1004.0
20260905044503 77 360 0.0 0.0 0.00 0.00 0.00 39 1004.0
20260905044001 77 360 0.0 0.0 0.00 0.00 0.00 40 1004.1
20260905043501 77 360 0.0 1.0 0.00 0.00 0.00 40 1004.1
20260905043002 77 360 0.0 2.0 0.00 0.00 0.00 39 1004.2
20260905042502 78 360 0.0 2.0 0.00 0.00 0.00 39 1004.2
20260905042002 78 294 0.0 3.0 0.00 0.00 0.00 39 1004.2
20260905041503 78 322 0.0 3.0 0.00 0.00 0.00 38 1004.2
20260905041002 79 326 0.0 2.0 0.00 0.00 0.00 37 1004.2
20260905040502 79 300 0.0 1.0 0.00 0.00 0.00 35 1004.2
20260905040004 79 215 0.0 2.0 0.00 0.00 0.00 34 1004.3
20260905035501 79 225 0.0 2.0 0.00 0.00 0.00 34 1004.3
20260905035100 80 232 0.0 1.0 0.00 0.00 0.00 35 1004.3
20260905034602 80 223 0.0 2.0 0.00 0.00 0.00 34 1004.3
20260905034100 80 32 0.0 2.0 0.00 0.00 0.00 33 1004.4
20260905033600 80 33 0.0 2.0 0.00 0.00 0.00 33 1004.3
20260905033104 80 10 0.0 2.0 0.00 0.00 0.00 32 1004.4
20260905032559 80 14 0.0 3.0 0.00 0.00 0.00 32 1004.4
20260905032059 80 14 1.0 4.0 0.00 0.00 0.00 32 1004.3
20260905031614 80 13 1.0 4.0 0.00 0.00 0.00 32 1004.2
20260905031103 80 13 2.0 4.0 0.00 0.00 0.00 32 1004.2
20260905030559 80 15 3.0 4.0 0.00 0.00 0.00 32 1004.1
20260905030059 80 11 2.0 4.0 0.00 0.00 0.00 32 1004.0
20260905025559 80 12 2.0 4.0 0.00 0.00 0.00 32 1004.0
20260905025058 80 11 2.0 4.0 0.00 0.00 0.00 32 1003.9
20260905024558 80 12 2.0 6.0 0.00 0.00 0.00 31 1003.9
20260905024059 80 12 3.0 6.0 0.00 0.00 0.00 31 1003.9
20260905023558 80 12 2.0 5.0 0.00 0.00 0.00 31 1003.8
20260905023100 81 12 3.0 6.0 0.00 0.00 0.00 31 1003.8
20260905022557 81 14 4.0 6.0 0.00 0.00 0.00 30 1003.7
20260905022057 81 12 3.0 6.0 0.00 0.00 0.00 30 1003.6
20260905021559 81 11 3.0 8.0 0.00 0.00 0.00 30 1003.6
20260905021059 81 11 4.0 6.0 0.00 0.00 0.00 30 1003.4
20260905020557 81 12 3.0 6.0 0.00 0.00 0.00 30 1003.4
20260905020100 81 11 4.0 6.0 0.00 0.00 0.00 30 1003.4
20260905015556 81 12 2.0 4.0 0.00 0.00 0.00 29 1003.3
20260905015056 82 11 2.0 4.0 0.00 0.00 0.00 28 1003.2
20260905014555 82 15 2.0 4.0 0.00 0.00 0.00 28 1003.2
20260905014056 83 16 2.0 5.0 0.00 0.00 0.00 28 1003.2
20260905013554 84 14 3.0 5.0 0.00 0.00 0.00 27 1003.1
20260905013055 85 15 2.0 5.0 0.00 0.00 0.00 27 1003.0
20260905012557 85 9 2.0 3.0 0.00 0.00 0.00 27 1002.9
20260905012055 86 9 0.0 3.0 0.00 0.00 0.00 26 1002.9
20260905011555 86 10 1.0 3.0 0.00 0.00 0.00 25 1002.9
20260905011058 87 10 1.0 3.0 0.00 0.00 0.00 24 1002.8
20260905010556 87 9 2.0 3.0 0.00 0.00 0.00 24 1002.8
20260905010105 87 9 0.0 4.0 0.00 0.00 0.00 24 1002.8
20260905005555 87 13 1.0 4.0 0.00 0.00 0.00 23 1002.8
20260905005053 88 11 1.0 6.0 0.00 0.00 0.00 23 1002.8
20260905004556 88 11 3.0 9.0 0.00 0.00 0.00 22 1002.8
20260905004053 89 85 4.0 10.0 0.00 0.00 0.00 22 1002.8
20260905003553 89 66 4.0 7.0 0.00 0.00 0.00 22 1002.8
20260905003053 89 75 3.0 8.0 0.00 0.00 0.00 21 1002.7
20260905002552 89 38 4.0 11.0 0.00 0.00 0.00 21 1002.7
20260905002052 90 61 5.0 11.0 0.00 0.00 0.00 21 1002.6
20260905001556 89 69 4.0 7.0 0.00 0.00 0.00 21 1002.6
20260905001056 89 78 5.0 9.0 0.00 0.00 0.00 21 1002.7
20260905000555 89 71 4.0 9.0 0.00 0.00 0.00 20 1002.7
20260904235554 89 98 3.0 7.0 0.00 0.00 0.00 20 1002.7
20260904235053 89 48 2.0 6.0 0.00 0.00 0.00 21 1002.6
20260904234551 88 55 3.0 6.0 0.00 0.00 0.00 21 1002.6
20260904234051 88 11 2.0 6.0 0.00 0.00 0.00 21 1002.6
20260904233551 88 10 2.0 6.0 0.00 0.00 0.00 20 1002.6
20260904233051 88 11 3.0 8.0 0.00 0.00 0.00 20 1002.6
20260904232551 89 40 3.0 6.0 0.00 0.00 0.00 20 1002.5
20260904232050 89 15 2.0 6.0 0.00 0.00 0.00 21 1002.5
20260904231553 89 27 3.0 7.0 0.00 0.00 0.00 21 1002.5
20260904231050 90 34 4.0 7.0 0.00 0.00 0.00 20 1002.5
20260904230550 89 45 2.0 6.0 0.00 0.00 0.00 20 1002.5
20260904230106 89 22 3.0 9.0 0.00 0.00 0.00 21 1002.5
20260904225550 89 5 2.0 6.0 0.00 0.00 0.00 20 1002.6
20260904225049 90 10 4.0 8.0 0.00 0.00 0.00 20 1002.5
20260904224550 90 40 3.0 8.0 0.00 0.00 0.00 19 1002.5
20260904224052 90 28 4.0 10.0 0.00 0.00 0.00 19 1002.6
20260904223549 91 97 5.0 10.0 0.00 0.00 0.00 18 1002.5
20260904223058 92 47 6.0 11.0 0.00 0.00 0.00 18 1002.6
20260904222648 93 55 4.0 11.0 0.00 0.00 0.00 17 1002.5
20260904222048 94 82 5.0 10.0 0.00 0.00 0.00 17 1002.5
20260904221548 94 76 3.0 10.0 0.00 0.00 0.00 16 1002.6
20260904221052 93 134 3.0 15.0 0.00 0.00 0.00 16 1002.5
20260904220549 93 59 7.0 15.0 0.00 0.00 0.00 17 1002.6